Regional Weather Roundup
Issued by NWS

Home | Current Version | Previous Version | Text Only | Print | Product List | Glossary On
Versions: 1 2 3 4 5 6 7 8 9 10 11 12 13 14 15 16 17 18 19 20 21 22 23 24 25 26 27 28 29 30 31 32 33 34 35 36 37 38 39 40 41 42 43 44 45 46 47 48 49 50
000
ASUS43 KDTX 012110
RWRMI
MICHIGAN HOURLY REGIONAL WEATHER ROUNDUP
NATIONAL WEATHER SERVICE DETROIT/PONTIAC MI
500 PM EDT MON SEP 01 2014

NOTE: "FAIR" INDICATES FEW OR NO CLOUDS BELOW 12,000 FEET WITH NO
SIGNIFICANT WEATHER AND/OR OBSTRUCTION TO VISIBILITY.

MIZ047>049-052>055-059>063-066>070-074>076-081>083-012200-
SOUTHEAST LOWER MICHIGAN

CITY           SKY/WX    TMP DP  RH WIND       PRES   REMARKS
ADRIAN         PTSUNNY   84  67  56 SW20G30   29.78F
ALMA           CLOUDY    76  71  86 W7        29.73F
ANN ARBOR      MOSUNNY   82  68  61 S15G25    29.75F
BAD AXE        HVY RAIN  76  70  79 W23G35    29.78R
CARO           HVY RAIN  68  67  97 W7G16     29.77R VSB 3/4
DETROIT CITY   CLOUDY    85  69  58 S14G25    29.76F
DETROIT        CLOUDY    84  69  60 S15       29.77F
FLINT          HVY RAIN  79  70  74 SW15G23   29.75S
GROSSE ILE     CLOUDY    84  72  65 S15       29.75F
HILLSDALE      LGT RAIN  77  74  91 W10G21    29.80R
HOWELL         HVY RAIN  75  70  84 W22G30    29.77R

CITY           SKY/WX    TMP DP  RH WIND       PRES   REMARKS
JACKSON        CLOUDY    80  69  69 SW17G26   29.78R
LAMBERTVILLE   PTSUNNY   86  68  54 SW15G22   29.79F
LANSING        CLOUDY    73  70  90 SW13      29.76S FOG
LAPEER         MOCLDY    81  68  64 SW12G22   29.75F
MASON          HVY RAIN  72  70  94 W6        29.77S
MONROE         PTSUNNY   88  68  51 SW14G22   29.76F HX  91
MT. CLEMENS    CLOUDY    81  70  69 S15       29.75F
PONTIAC        CLOUDY    81  68  64 S10G23    29.74F THUNDER
PORT HOPE        N/A     80  67  64 VRB7      29.70F
PORT HURON     CLOUDY    79  72  78 S14       29.77F
TRI CITIES     CLOUDY    75  71  87 SW10      29.74F
TROY           CLOUDY    85  68  55 S10G22    29.77F
SAGINAW HB     CLOUDY    72  72 100 SW6       29.74F
$$
MIZ043>046-050>051-056>058-064>065-071>073-077>080-012200-
SOUTHWEST LOWER MICHIGAN

CITY           SKY/WX    TMP DP  RH WIND       PRES   REMARKS
BATTLE CREEK   PTSUNNY   76  71  85 SW9       29.78F
BENTON HARBOR  MOSUNNY   81  68  64 W16       29.75F
BIG RAPIDS     PTSUNNY   77  69  74 SW13G20   29.70S
COLDWATER      LGT RAIN  77  74  88 W7        29.79R
FREMONT        MOCLDY    78  67  69 SW12G20   29.72S
HOLLAND        SUNNY     81  70  69 SW17G26   29.75S
GRAND RAPIDS   PTSUNNY   80  71  74 SW18G30   29.74S
IONIA          MOCLDY    80  70  72 W15G21    29.73S
KALAMAZOO      PTSUNNY   80  72  76 SW10      29.76F
LUDINGTON      PTSUNNY   74  70  85 SW13G18   29.70S
MARSHALL       RAIN      70  68  94 W20G37    29.78R
MOUNT PLEASANT MOSUNNY   79  68  70 SW10G18   29.71S
MUSKEGON       MOSUNNY   78  69  73 SW18G25   29.73S
SOUTH HAVEN    MOSUNNY   81  69  67 SW12      29.75S
$$
MIZ016>042-012200-
NORTHERN LOWER MICHIGAN

CITY           SKY/WX    TMP DP  RH WIND       PRES   REMARKS
ALPENA         CLOUDY    72  69  90 SW8       29.67S
BEAVER ISLAND  PTSUNNY   72  65  78 SW14      29.64R
BELLAIRE       MOSUNNY   75  65  70 SW5       29.65R
CADILLAC       MOSUNNY   75  67  75 SW15G21   29.70R
CHARLEVOIX     MOSUNNY   73  66  80 SW15G22   29.68R
FRANKFORT      PTSUNNY   72  63  75 SW9       29.68R
GAYLORD        MOSUNNY   73  64  73 W17G23    29.67F
GRAYLING       MOSUNNY   75  67  74 W8        29.70R
HARBOR SPRINGS PTSUNNY   72  67  83 SW8       29.64R
HOUGHTON LAKE  MOSUNNY   74  67  78 SW6       29.70F
MANISTEE       CLOUDY    75  64  69 SW9       29.69R
OSCODA         CLOUDY    73  70  91 SW8       29.68F
PELLSTON       MOSUNNY   73  66  78 SW8G20    29.64R
ROGERS CITY    CLOUDY    73  70  88 SW5       29.64F
TRAVERSE CITY  MOSUNNY   77  64  64 SW9       29.64S
$$
MIZ007>008-015-012200-
EASTERN UPPER MICHIGAN

CITY           SKY/WX    TMP DP  RH WIND       PRES   REMARKS
KINROSS        CLOUDY    72  70  94 S7        29.59F
MACKINAC ISLAN PTSUNNY   69  68  95 SW7       29.61R
NEWBERRY       CLOUDY    69  65  86 SW17G24   29.59S
S. S. MARIE    CLOUDY    70  65  84 SE8       29.58F
MUNISING         N/A     75  63  66 SW8       29.58S
$$
MIZ004>006-011>014-085-012200-
CENTRAL UPPER MICHIGAN

CITY           SKY/WX    TMP DP  RH WIND       PRES   REMARKS
MANISTIQUE     CLOUDY    71  64  79 SW7G21    29.60S
ESCANABA       MOSUNNY   75  61  60 W17G23    29.60S
MENOMINEE      MOSUNNY   73  64  73 W9        29.62S
SAWYER-GWINN   PTSUNNY   68  63  83 W10       29.62R
$$
MIZ001>003-009>011-084-012200-
WESTERN UPPER MICHIGAN

CITY           SKY/WX    TMP DP  RH WIND       PRES   REMARKS
IRON MOUNTAIN  SUNNY     72  63  73 W9        29.62S
HOUGHTON       PTSUNNY   66  57  72 W20G31    29.60R
COPPER HARBOR    N/A     68  58  70 NW8G20    29.56S
$$

ABBREVIATIONS USED IN REMARKS
   TC - TEMPERATURE IN CELSIUS
  WCI - WIND CHILL INDEX
   HX - HEAT INDEX
  VSB - VISIBILITY




USA.gov is the U.S. government's official web portal to all federal, state and local government web resources and services.